Weather History for Indianapolis, IN

Change the Weather History Date:

Thursday, January 23, 2014

  Actual Average Record
Temperature  
Mean Temperature 3 °F 28 °F  
Max Temperature 9 °F 36 °F 67 °F (1909)
Min Temperature -3 °F 20 °F -18 °F (1936)
Degree Days  
Heating Degree Days 62 37  
Month to date heating degree days 1002 851  
Since 1 July heating degree days 3225 2927  
Cooling Degree Days 0 0  
Month to date cooling degree days 0 0  
Year to date cooling degree days 0 0  
Moisture  
Dew Point -6 °F    
Average Humidity 69    
Maximum Humidity 79    
Minimum Humidity 59    
Precipitation  
Precipitation T in 0.08 in 0.90 in (1950)
Month to date precipitation 2.28 2.02  
Year to date precipitation 2.28 2.02  
Snow  
Snow T in 0.30 in 2.50 in (1963)
Month to date snowfall 24.9 6.3  
Since 1 July snowfall 33.8 14.3  
Snow Depth 3.00 in    
Sea Level Pressure  
Sea Level Pressure 30.46 in    
Wind  
Wind Speed 14 mph (WNW)    
Max Wind Speed 25 mph    
Max Gust Speed 31 mph    
Visibility 9 miles    
Events Snow    
T = Trace of Precipitation, MM = Missing Value Source: NWS Daily Summary

Daily Weather History Graph

Daily Weather History Graph

Search for Another Location

Airport:

Trip Planner

Search our weather history database for the weather conditions in past years. The results will help you decide how hot, cold, wet, or windy it might be!

Date:

Astronomy

Jan. 23, 2014 Rise Set
Actual Time 8:00 AM EST 5:54 PM EST
Civil Twilight 7:31 AM EST 6:23 PM EST
Nautical Twilight 6:58 AM EST 6:56 PM EST
Astronomical Twilight 6:26 AM EST 7:28 PM EST
Moon 12:24 AM EST (1/23) 11:36 AM EST (1/23)
Length of Visible Light 10h 52m
Length of Day
9h 54m
Waning Gibbous, 55% of the Moon is Illuminated
Jan 23
Waning Gibbous
Jan 24
Last Quarter
Jan 30
New
Feb 6
First Quarter
Feb 14
Full

Hourly Weather History & Observations

Time (EST) Temp. Windchill Dew Point Humidity Pressure Visibility Wind Dir Wind Speed Gust Speed Precip Events Conditions
12:54 AM 8.1 °F -7.7 °F -0.9 °F 67% 30.18 in 10.0 mi WNW 12.7 mph - N/A   Partly Cloudy
1:54 AM 7.0 °F -9.8 °F -0.9 °F 70% 30.20 in 10.0 mi WNW 13.8 mph - N/A   Mostly Cloudy
2:37 AM 5.0 °F -13.0 °F -2.2 °F 72% 30.17 in 10.0 mi WNW 15.0 mph 25.3 mph 0.00 in   Scattered Clouds
2:42 AM 5.0 °F -11.6 °F -2.2 °F 72% 30.18 in 10.0 mi WNW 12.7 mph - 0.00 in Snow Light Snow
2:54 AM 5.0 °F -14.7 °F -2.0 °F 73% 30.24 in 8.0 mi West 18.4 mph - 0.00 in Snow Light Snow
3:54 AM 3.0 °F -16.1 °F -2.9 °F 76% 30.27 in 4.0 mi WNW 16.1 mph - 0.00 in Snow Light Snow
4:34 AM 1.4 °F -18.2 °F -4.0 °F 78% 30.25 in 5.0 mi WNW 16.1 mph 24.2 mph 0.00 in Snow Light Snow
4:54 AM 1.0 °F -19.9 °F -6.0 °F 72% 30.32 in 4.0 mi WNW 18.4 mph 28.8 mph 0.00 in Snow Light Snow
5:03 AM 1.4 °F -21.9 °F -7.6 °F 66% 30.27 in 5.0 mi WNW 24.2 mph 31.1 mph 0.00 in Snow Light Snow
5:31 AM -0.4 °F -21.7 °F -9.4 °F 66% 30.29 in 8.0 mi WNW 18.4 mph 27.6 mph 0.00 in Snow Light Snow
5:39 AM -0.4 °F -19.9 °F -9.4 °F 66% 30.30 in 9.0 mi WNW 15.0 mph - 0.00 in   Scattered Clouds
5:54 AM -0.9 °F -19.1 °F -11.0 °F 62% 30.36 in 10.0 mi WNW 12.7 mph - 0.00 in   Partly Cloudy
6:54 AM -2.0 °F -23.9 °F -11.0 °F 66% 30.40 in 10.0 mi WNW 18.4 mph - N/A   Clear
7:54 AM -2.9 °F -23.1 °F -11.9 °F 65% 30.44 in 10.0 mi West 15.0 mph - N/A   Partly Cloudy
8:54 AM -2.0 °F -21.2 °F -11.0 °F 66% 30.47 in 10.0 mi West 13.8 mph - N/A   Partly Cloudy
9:54 AM -0.9 °F -22.4 °F -11.0 °F 62% 30.51 in 10.0 mi West 18.4 mph 25.3 mph N/A   Partly Cloudy
10:54 AM -0.0 °F -21.3 °F -9.0 °F 66% 30.54 in 10.0 mi West 18.4 mph - N/A   Scattered Clouds
11:54 AM 1.9 °F -19.2 °F -8.0 °F 63% 30.56 in 10.0 mi WNW 19.6 mph - N/A   Scattered Clouds
12:54 PM 3.0 °F -15.5 °F -8.0 °F 60% 30.56 in 10.0 mi West 15.0 mph - N/A   Partly Cloudy
1:54 PM 3.9 °F -14.3 °F -6.0 °F 64% 30.55 in 10.0 mi West 15.0 mph - N/A   Mostly Cloudy
2:30 PM 3.2 °F -15.3 °F -7.6 °F 61% 30.50 in 10.0 mi West 15.0 mph - N/A   Mostly Cloudy
2:54 PM 5.0 °F -14.2 °F -6.0 °F 61% 30.57 in 10.0 mi West 17.3 mph - N/A   Mostly Cloudy
3:54 PM 5.0 °F -14.2 °F -5.1 °F 63% 30.59 in 10.0 mi West 17.3 mph 21.9 mph N/A   Mostly Cloudy
4:54 PM 5.0 °F -13.6 °F -5.1 °F 63% 30.61 in 10.0 mi West 16.1 mph - N/A   Mostly Cloudy
5:54 PM 3.9 °F -11.3 °F -5.1 °F 66% 30.63 in 10.0 mi West 10.4 mph - N/A   Mostly Cloudy
6:54 PM 3.0 °F -14.8 °F -5.1 °F 69% 30.64 in 10.0 mi West 13.8 mph - N/A   Mostly Cloudy
7:48 PM 1.4 °F -13.5 °F -5.8 °F 72% 30.59 in 10.0 mi West 9.2 mph - N/A   Scattered Clouds
7:54 PM 1.9 °F -12.9 °F -5.1 °F 72% 30.66 in 10.0 mi West 9.2 mph - N/A   Scattered Clouds
8:54 PM -0.0 °F -13.0 °F -6.0 °F 76% 30.66 in 10.0 mi West 6.9 mph - N/A   Partly Cloudy
9:54 PM -0.0 °F -16.3 °F -6.0 °F 76% 30.66 in 10.0 mi West 10.4 mph - N/A   Partly Cloudy
10:54 PM -0.9 °F -15.3 °F -6.0 °F 79% 30.66 in 10.0 mi WSW 8.1 mph - N/A   Partly Cloudy
11:54 PM -2.0 °F -16.6 °F -7.1 °F 79% 30.66 in 10.0 mi WSW 8.1 mph - N/A   Partly Cloudy